Hourly Data Report for January 02, 2005

SHERBROOKE A
QUEBEC

45°26'00.000" N
71°41'00.000" W
241.40 m
7028124
71610
YSC

Download Data

Hourly Data (January 2005)
Hourly Data Report for January 2, 2005
TIME
LST
Temp Definition
°C
Dew Point Definition
°C
Rel Hum Definition
%
Precip. Amount Definition
mm

Wind Dir Definition
10's deg

Wind Spd Definition
km/h
Visibility Definition
km
Stn Press Definition
kPa
Hmdx Definition


Wind Chill Definition


Weather Definition


00:00 -12.7 -18.4 62   34 9 15.0 100.87   -18  
01:00 -13.8 -18.7 66   34 4 15.0 100.92   -17  
02:00 -14.3 -18.4 71   30 6 15.0 101.03   -18  
03:00 -15.0 -18.0 78     0 15.0 101.09      
04:00 -15.6 -18.2 80   8 4 15.0 101.08   -19  
05:00 -16.7 -18.8 84   3 6 15.0 101.06   -21  
06:00 -16.3 -18.9 80   8 7 15.0 101.09   -21  
07:00 -16.5 -18.9 82   5 9 15.0 101.00   -23  
08:00 -16.2 -18.6 82   7 13 24.1 100.96   -24 Mostly Cloudy
09:00 -14.9 -17.5 81   7 9 24.1 100.91   -21 Mostly Cloudy
10:00 -12.9 -16.9 72   7 7 24.1 100.82   -17 Mostly Cloudy
11:00 -11.4 -15.8 70   4 6 24.1 100.64   -15 Cloudy
12:00 -9.1 -14.5 65   6 9 24.1 100.34   -14 Mostly Cloudy
13:00 -7.9 -14.1 61   3 7 24.1 100.30   -12 Mostly Cloudy
14:00 -7.1 -13.5 60   7 11 24.1 100.11   -12 Cloudy
15:00 -3.8 -13.8 46   14 15 24.1 99.89   -9 Cloudy
16:00 -4.8 -7.5 81   15 15 16.1 99.73   -10 Freezing Rain,Ice Pellets
17:00 -3.0 -5.7 82   16 17 6.4 99.64   -9 Freezing Rain
18:00 -2.1 -4.9 81   16 11 15.0 99.58   -6 Freezing Rain
19:00 -1.9 -4.1 85   18 13 9.7 99.44   -6 Freezing Rain
20:00 -0.8 -2.8 86   20 11 6.4 99.39   -5 Freezing Rain
21:00 -0.1 -2.0 87   19 11 6.4 99.34   -4 Freezing Rain
22:00 0.2 -1.2 90   18 6 15.0 99.27     Snow
23:00 0.5 -0.8 91   19 7 8.0 99.22      

Notes on Data Quality.

Legend

  • E = Estimated
  • M = Missing
  • NA = Not Available*
  • [empty] = Indicates an unobserved value
Date modified: